星链-33988 (STARLINK-33988)

导读

STARLINK-33988是美国太空探索技术公司(SpaceX)于2025年5月13日发射的星链(Starlink)星座组网卫星,归属星链低轨卫星互联网项目。作为Starlink V1.0平台卫星,它运行在近地轨道,轨道倾角约70度,轨道高度约438公里。星链星座通过规模化低轨卫星组网,为全球各地提供高速低延迟互联网接入,这颗卫星承担扩展星座覆盖、增强网络容量的任务,助力缩小全球数字鸿沟,同时可为民用通信乃至特殊行业应用提供支持。

基本信息
目录编号:
63938
目录名称:
STARLINK-33988
国际标识:
2025-098N
轨道中心:
EARTH
卫星名称:
星链-33988
卫星全名:
星链-33988 (STARLINK-33988)
卫星状态:
在轨 (已飞行397 天)
发射日期:
2025-05-13 UTC
国别 :
美国 (US)
星等 :
--
轨道信息
数据来源 国际轨道数据 AOE轨道数据
星历时间 2026-06-14T04:15:14+0800
7小时前
查看轨道信息
2026-06-09T00:00:00+0800
5天前
查看轨道信息
半长轴 6950.185km 6950.178km
偏心率 0.0003416 0.0003549
轨道倾角 70.002° 70.001°
近地点辐角 267.042° 272.921°
升交点赤经 32.093° 45.145°
平近点角 93.035° 249.106°
近地点 569.673km 569.574km
远地点 574.423km 574.508km
周期 96.107分钟 96.107分钟
每日圈数 14.983327 14.983351
详细信息
固有亮度:
5
最大亮度:
2.5
卫星平台:
Starlink V1.0
覆盖范围:
全球
运营商:
太空探索技术公司
运营商所在国:
美国
制造商(研发单位):
太空探索技术公司
制造商所在国:
美国
使用方式:
暂无
卫星简介
Starlink 计划是 SpaceX 推出的全球卫星互联网项目,通过发射低轨道卫星,为全球尤其是偏远地区提供高速、低延迟的互联网服务。自 2019 年起,Starlink 已部署数千颗卫星,旨在缩小全球数字鸿沟,推动互联网普及。该项目还为军事、航空等行业提供通信支持,带来广泛经济效益。
2D轨道图
3D轨道图
轨道高度分析图
轨道倾角分析图
轨道综合分析图
查看轨道综合分析图